Date String (YYYY-MM-DD hh:mm:ss) UTC,Instrument flags,absolute air pressure of the measurement (hPa),sample flow rate (lpm),inlet stack bypass flow (lpm),air temperature of the measurement (°C),ambient temperature measured by the external sensor (°C),aerosol sample conditioner tube jacket temperature (°C),OPC LED temperature (°C),internal box temperature (°C),relative humidity of the measurement (%),span deviation,mass concentration of particles derived from Lorenz-Mie calculation of OPC scattering (μg/m³),mass concentration of particles derived from Lorenz-Mie calculation of OPC scattering (μg/m³),mass concentration of particles derived from Lorenz-Mie calculation of OPC scattering (μg/m³)
DateTimeUTC,F1_M11,P_M11,Q1_M11,Q2_M11,T1_M11,T2_M11,T3_M11,T4_M11,T5_M11,U1_M11,ZSPAN_M11,X0_M11,X2_M11,X1_M11
2023-11-08 16:00:00,SystemResetWarning,0830.2,4.99,000.00,026.6,025.7,000.0,035.0,028.1,15.6,0000.0,0010.14,0003.90,0003.32
2023-11-08 16:01:00,SystemResetWarning,0830.2,5.00,000.00,026.6,025.7,000.0,035.0,028.1,15.6,0000.0,0010.01,0003.93,0003.33
2023-11-08 16:02:00,SystemResetWarning,0830.2,5.01,000.00,026.6,025.7,000.0,035.0,028.1,15.6,0000.0,0010.25,0003.92,0003.35
2023-11-08 16:03:00,SystemResetWarning,0830.2,5.01,000.00,026.6,025.7,000.0,035.0,028.1,15.6,0000.0,0010.23,0003.90,0003.36
2023-11-08 16:04:00,SystemResetWarning,0830.3,4.99,000.00,026.6,025.7,000.0,035.0,028.1,15.6,0000.0,0009.62,0003.90,0003.38
2023-11-08 16:05:00,SystemResetWarning,0830.4,4.99,000.00,026.6,025.7,000.0,035.0,028.1,15.7,0000.0,0009.36,0003.89,0003.40
2023-11-08 16:06:00,SystemResetWarning,0830.5,4.99,000.00,026.6,025.7,000.0,035.0,028.1,15.7,0000.0,0009.48,0003.91,0003.42
2023-11-08 16:07:00,SystemResetWarning,0830.4,5.00,000.00,026.6,025.7,000.0,035.0,028.1,15.7,0000.0,0009.68,0003.96,0003.44
2023-11-08 16:08:00,SystemResetWarning,0830.5,5.01,000.00,026.6,025.7,000.0,035.0,028.1,15.7,0000.0,0009.71,0004.01,0003.45
2023-11-08 16:09:00,SystemResetWarning,0830.4,5.00,000.00,026.6,025.7,000.0,035.0,028.1,15.4,0000.0,0009.33,0004.05,0003.47
2023-11-08 16:10:00,SystemResetWarning,0830.4,5.01,000.00,026.6,025.7,000.0,035.0,028.1,15.6,0000.0,0009.24,0004.03,0003.47
2023-11-08 16:11:00,SystemResetWarning,0830.4,5.00,000.00,026.6,025.7,000.0,035.0,028.1,15.8,0000.0,0009.22,0004.05,0003.48
2023-11-08 16:12:00,SystemResetWarning,0830.4,5.01,000.00,026.6,025.7,000.0,035.0,028.1,15.8,0000.0,0008.36,0004.03,0003.48
2023-11-08 16:13:00,SystemResetWarning,0830.4,5.00,000.00,026.6,025.7,000.0,035.0,028.0,15.7,0000.0,0007.97,0004.03,0003.48
2023-11-08 16:14:00,SystemResetWarning,0830.8,5.00,000.00,026.6,025.7,000.0,035.0,028.1,15.6,0000.0,0008.32,0004.08,0003.48
2023-11-08 16:15:00,SystemResetWarning,0830.4,5.00,000.00,026.6,025.7,000.0,035.0,028.1,15.6,0000.0,0008.79,0004.15,0003.48
2023-11-08 16:16:00,SystemResetWarning,0830.4,4.99,000.00,026.6,025.7,000.0,035.0,028.1,15.5,0000.0,0009.01,0004.20,0003.48
2023-11-08 16:17:00,SystemResetWarning,0830.5,5.00,000.00,026.6,025.7,000.0,035.0,028.0,15.5,0000.0,0008.80,0004.20,0003.48
2023-11-08 16:18:00,SystemResetWarning,0830.7,5.00,000.00,026.6,025.7,000.0,035.0,028.1,15.8,0000.0,0008.50,0004.16,0003.49
2023-11-08 16:19:00,SystemResetWarning,0830.5,5.00,000.00,026.6,025.7,000.0,035.0,028.1,15.9,0000.0,0008.19,0004.13,0003.49
2023-11-08 16:20:00,SystemResetWarning,0830.5,5.00,000.00,026.6,025.7,000.0,035.0,028.0,15.7,0000.0,0008.06,0004.10,0003.49
2023-11-08 16:21:00,SystemResetWarning,0830.6,4.99,000.00,026.6,025.7,000.0,035.0,028.0,15.7,0000.0,0008.19,0004.14,0003.50
2023-11-08 16:22:00,SystemResetWarning,0830.6,4.99,000.00,026.6,025.7,000.0,035.0,028.0,15.5,0000.0,0007.98,0004.14,0003.50
2023-11-08 16:23:00,SystemResetWarning,0830.5,5.00,000.00,026.6,025.7,000.0,035.0,027.9,15.5,0000.0,0008.20,0004.16,0003.51
2023-11-08 16:24:00,SystemResetWarning,0830.6,5.01,000.00,026.6,025.6,000.0,035.0,028.0,15.5,0000.0,0008.25,0004.17,0003.51
2023-11-08 16:25:00,SystemResetWarning,0830.6,5.00,000.00,026.6,025.6,000.0,035.0,028.0,15.5,0000.0,0008.04,0004.17,0003.52
2023-11-08 16:26:00,SystemResetWarning,0830.6,5.01,000.00,026.5,025.6,000.0,035.0,027.9,15.4,0000.0,0007.73,0004.17,0003.52
2023-11-08 16:27:00,SystemResetWarning,0830.6,5.00,000.00,026.5,025.6,000.0,035.0,027.9,15.4,0000.0,0007.66,0004.15,0003.51
2023-11-08 16:28:00,SystemResetWarning,0830.6,5.00,000.00,026.5,025.6,000.0,035.0,027.9,15.3,0000.0,0007.65,0004.15,0003.51
2023-11-08 16:29:00,SystemResetWarning,0830.6,5.00,000.00,026.5,025.6,000.0,035.0,028.0,15.4,0000.0,0007.73,0004.19,0003.50
2023-11-08 16:30:00,SystemResetWarning,0830.7,5.00,000.00,026.5,025.6,000.0,035.0,028.0,15.4,0000.0,0007.80,0004.22,0003.51
2023-11-08 16:31:00,SystemResetWarning,0830.7,5.00,000.00,026.5,025.6,000.0,034.9,027.9,15.4,0000.0,0007.90,0004.23,0003.51
2023-11-08 16:32:00,SystemResetWarning,0830.7,5.00,000.00,026.5,025.5,000.0,034.9,027.9,15.3,0000.0,0007.82,0004.20,0003.51
2023-11-08 16:33:00,SystemResetWarning,0830.7,5.00,000.00,026.5,025.5,000.0,034.9,027.9,15.4,0000.0,0007.97,0004.23,0003.50
2023-11-08 16:34:00,SystemResetWarning,0830.7,5.00,000.00,026.5,025.5,000.0,034.9,027.9,15.3,0000.0,0007.82,0004.22,0003.50
2023-11-08 16:35:00,SystemResetWarning,0830.7,5.00,000.00,026.5,025.5,000.0,034.9,027.8,15.2,0000.0,0007.65,0004.20,0003.50
2023-11-08 16:36:00,SystemResetWarning,0830.7,5.00,000.00,026.4,025.5,000.0,034.9,027.9,15.1,0000.0,0008.03,0004.20,0003.49
2023-11-08 16:37:00,SystemResetWarning,0830.7,4.99,000.00,026.4,025.5,000.0,034.9,027.8,15.1,0000.0,0008.55,0004.17,0003.48
2023-11-08 16:38:00,SystemResetWarning,0830.7,5.00,000.00,026.4,025.5,000.0,034.9,027.8,14.9,0000.0,0008.50,0004.17,0003.47
2023-11-08 16:39:00,SystemResetWarning,0830.7,5.01,000.00,026.4,025.5,000.0,034.9,027.8,15.0,0000.0,0008.44,0004.13,0003.46
2023-11-08 16:40:00,SystemResetWarning,0830.7,5.00,000.00,026.4,025.4,000.0,034.9,027.9,14.9,0000.0,0008.33,0004.08,0003.45
2023-11-08 16:41:00,SystemResetWarning,0830.7,4.99,000.00,026.4,025.4,000.0,034.9,027.8,15.0,0000.0,0008.28,0004.04,0003.42
2023-11-08 16:42:00,SystemResetWarning,0830.7,4.99,000.00,026.4,025.4,000.0,034.8,027.8,15.1,0000.0,0008.16,0003.99,0003.39
2023-11-08 16:43:00,SystemResetWarning,0830.7,4.99,000.00,026.4,025.4,000.0,034.8,027.8,15.2,0000.0,0008.10,0003.95,0003.37
2023-11-08 16:44:00,SystemResetWarning,0830.7,5.01,000.00,026.4,025.4,000.0,034.8,027.8,15.4,0000.0,0007.84,0003.86,0003.34
2023-11-08 16:45:00,SystemResetWarning,0830.8,5.01,000.00,026.4,025.5,000.0,034.8,027.8,15.5,0000.0,0007.88,0003.79,0003.32
2023-11-08 16:46:00,SystemResetWarning,0830.8,5.00,000.00,026.4,025.5,000.0,034.8,027.9,15.5,0000.0,0008.72,0003.79,0003.30
2023-11-08 16:47:00,SystemResetWarning,0830.8,5.01,000.00,026.4,025.5,000.0,034.8,027.9,15.6,0000.0,0008.61,0003.74,0003.28
2023-11-08 16:48:00,SystemResetWarning,0830.9,5.00,000.00,026.4,025.5,000.0,034.8,027.8,15.7,0000.0,0007.69,0003.68,0003.25
2023-11-08 16:49:00,SystemResetWarning,0830.9,5.00,000.00,026.4,025.5,000.0,034.8,027.8,15.7,0000.0,0007.54,0003.62,0003.23
2023-11-08 16:50:00,SystemResetWarning,0830.9,5.00,000.00,026.4,025.5,000.0,034.8,027.8,15.7,0000.0,0007.53,0003.60,0003.21
2023-11-08 16:51:00,SystemResetWarning,0830.9,5.00,000.00,026.4,025.4,000.0,034.8,027.8,15.8,0000.0,0007.58,0003.61,0003.19
2023-11-08 16:52:00,SystemResetWarning,0830.9,5.00,000.00,026.4,025.4,000.0,034.8,027.8,15.7,0000.0,0007.67,0003.62,0003.20
2023-11-08 16:53:00,SystemResetWarning,0830.9,5.00,000.00,026.4,025.4,000.0,034.8,027.8,15.8,0000.0,0007.74,0003.64,0003.21
2023-11-08 16:54:00,SystemResetWarning,0830.9,5.00,000.00,026.4,025.4,000.0,034.8,027.8,15.9,0000.0,0008.00,0003.66,0003.21
2023-11-08 16:55:00,SystemResetWarning,0830.9,5.00,000.00,026.4,025.4,000.0,034.8,027.8,15.9,0000.0,0008.10,0003.69,0003.22
2023-11-08 16:56:00,SystemResetWarning,0830.9,4.99,000.00,026.4,025.4,000.0,034.8,027.9,15.9,0000.0,0008.37,0003.72,0003.24
2023-11-08 16:57:00,SystemResetWarning,0830.9,5.00,000.00,026.4,025.4,000.0,034.8,027.9,16.0,0000.0,0007.66,0003.72,0003.24
2023-11-08 16:58:00,SystemResetWarning,0830.9,5.00,000.00,026.4,025.4,000.0,034.8,027.8,16.0,0000.0,0007.74,0003.74,0003.24
2023-11-08 16:59:00,SystemResetWarning,0830.9,5.00,000.00,026.4,025.4,000.0,034.8,027.8,16.0,0000.0,0007.86,0003.77,0003.26
